This is the latest recevied weather packets stored in our database for station/object K5RWS. If no packets are shown the sender has not sent any weather packets the latest 10 day(s).
| Time | Temp. | Humidity | Pressure | Rain* | Wind** | Luminosity | Snow |
|---|---|---|---|---|---|---|---|
| 1778008068 | 15° C | 46% | 1014.5 hPa | 0 mm | - | 370 W/m² | - |
| 1778007763 | 15° C | 46% | 1014.3 hPa | 0 mm | - | 425 W/m² | - |
| 1778007460 | 15° C | 44% | 1014.3 hPa | 0 mm | - | 707 W/m² | - |
| 1778007157 | 14.44° C | 46% | 1014.5 hPa | 0 mm | - | 600 W/m² | - |
| 1778006852 | 13.89° C | 46% | 1014.3 hPa | 0 mm | - | 450 W/m² | - |
| 1778006550 | 14.44° C | 46% | 1014.6 hPa | 0 mm | - | 297 W/m² | - |
| 1778006247 | 15° C | 42% | 1014.5 hPa | 0 mm | - | 288 W/m² | - |
| 1778005944 | 15° C | 43% | 1014.2 hPa | 0 mm | - | 305 W/m² | - |
| 1778005640 | 15° C | 44% | 1014.2 hPa | 0 mm | - | 314 W/m² | - |
| 1778005338 | 15° C | 44% | 1014.5 hPa | 0 mm | - | 404 W/m² | - |
| 1778005034 | 16.11° C | 42% | 1014.6 hPa | 0 mm | - | 593 W/m² | - |
| 1778004732 | 16.67° C | 40% | 1014.6 hPa | 0 mm | - | 814 W/m² | - |
| 1778004428 | 15° C | 43% | 1014.3 hPa | 0 mm | - | 602 W/m² | - |
| 1778004125 | 15° C | 43% | 1014.1 hPa | 0 mm | - | 613 W/m² | - |
| 1778003820 | 15° C | 43% | 1014.2 hPa | 0 mm | - | 887 W/m² | - |
| 1778003517 | 15° C | 44% | 1014.2 hPa | 0 mm | - | 758 W/m² | - |
| 1778003214 | 14.44° C | 42% | 1014.5 hPa | 0 mm | - | 369 W/m² | - |
| 1778002910 | 14.44° C | 44% | 1014.3 hPa | 0 mm | - | 279 W/m² | - |
| 1778002607 | 15.56° C | 41% | 1014.3 hPa | 0 mm | - | 314 W/m² | - |
| 1778002304 | 15° C | 40% | 1014 hPa | 0 mm | - | 349 W/m² | - |
| 1778002001 | 15° C | 38% | 1014.1 hPa | 0 mm | - | 362 W/m² | - |
| 1778001698 | 15° C | 38% | 1014.1 hPa | 0 mm | - | 474 W/m² | - |
| 1778001397 | 14.44° C | 39% | 1014 hPa | 0 mm | - | 294 W/m² | - |
| 1778001095 | 14.44° C | 40% | 1014.2 hPa | 0 mm | - | 188 W/m² | - |
| 1778000792 | 14.44° C | 41% | 1014.3 hPa | 0 mm | - | 170 W/m² | - |
* Rain latest hour (hover to see other rain measurements)
** Current wind speed in m/s (hover to see current wind gust speed)